Dothan, AL

11:08 AM CDT on July 26, 2017 (GMT -0500)
Dothan Regional

Weather History for KDHN - February, 2014

Change the Weather History Date:

Wednesday, February 12, 2014

  Actual Average Record
Temperature  
Mean Temperature 39 °F 52 °F  
Max Temperature 42 °F 64 °F 79 °F (2017)
Min Temperature 35 °F 41 °F 20 °F (1955)
Degree Days  
Heating Degree Days 26 13  
Month to date heating degree days 156 167  
Since 1 July heating degree days 1493 1383  
Moisture  
Dew Point 38 °F    
Average Humidity 96    
Maximum Humidity 100    
Minimum Humidity 92    
Precipitation  
Precipitation 2.23 in 0.18 in 2.47 in (1935)
Month to date precipitation 2.88 1.85  
Year to date precipitation 5.81 6.48  
Sea Level Pressure  
Sea Level Pressure 29.95 in    
Wind  
Wind Speed 12 mph (NE)    
Max Wind Speed 23 mph    
Max Gust Speed 29 mph    
Visibility 4 miles    
Events Fog , Rain , Thunderstorm    
T = Trace of Precipitation, MM = Missing Value Source: NWS Daily Summary

Daily Weather History Graph

Daily Weather History Graph

Search for Another Location

Airport or City:

Trip Planner

Search our weather history database for the weather conditions in past years. The results will help you decide how hot, cold, wet, or windy it might be!

Date:

Astronomy

Feb. 12, 2014 Rise Set
Actual Time 6:25 AM CST 5:26 PM CST
Civil Twilight 6:00 AM CST 5:51 PM CST
Nautical Twilight 5:32 AM CST 6:20 PM CST
Astronomical Twilight 5:04 AM CST 6:48 PM CST
Moon 3:42 PM CST (2/12) 4:38 AM CST (2/12)
Length of Visible Light 11h 50m
Length of Day
11h 00m
Waxing Gibbous, 95% of the Moon is Illuminated
Feb 12
Waxing Gibbous
Feb 14
Full
Feb 22
Last Quarter
Mar 1
New
Mar 8
First Quarter

Hourly Weather History & Observations

Time (CST) Temp. Windchill Dew Point Humidity Pressure Visibility Wind Dir Wind Speed Gust Speed Precip Events Conditions
12:53 AM 41.0 °F 34.3 °F 39.9 °F 96% 30.09 in 4.0 mi ENE 11.5 mph - 0.10 in Rain Rain
1:11 AM 41.0 °F 32.8 °F 39.2 °F 93% 30.07 in 2.5 mi East 16.1 mph 21.9 mph 0.10 in Rain Heavy Rain
1:18 AM 41.0 °F 34.7 °F 39.2 °F 93% 30.08 in 3.0 mi ENE 10.4 mph 21.9 mph 0.12 in Rain Rain
1:41 AM 41.0 °F 33.5 °F 39.2 °F 93% 30.07 in 5.0 mi East 13.8 mph 21.9 mph 0.16 in Rain Light Rain
1:53 AM 41.0 °F 31.1 °F 39.0 °F 93% 30.03 in 4.0 mi East 23.0 mph 28.8 mph 0.20 in Rain Rain
2:03 AM 41.0 °F 34.7 °F 39.2 °F 93% 30.05 in 5.0 mi ENE 10.4 mph 24.2 mph 0.01 in Rain Light Rain
2:49 AM 39.2 °F 31.6 °F 39.2 °F 100% 30.04 in 4.0 mi East 12.7 mph - 0.17 in Rain Rain
2:53 AM 39.9 °F 31.8 °F 39.0 °F 97% 30.04 in 3.0 mi East 15.0 mph - 0.19 in Rain Rain
3:19 AM 39.2 °F 31.6 °F 37.4 °F 93% 30.01 in 10.0 mi ENE 12.7 mph - 0.06 in Rain Light Rain
3:53 AM 39.9 °F 32.9 °F 39.0 °F 97% 30.01 in 7.0 mi ENE 11.5 mph - 0.10 in Rain Light Rain
4:33 AM 39.2 °F 32.0 °F 39.2 °F 100% 30.03 in 2.0 mi NNE 11.5 mph - 0.17 in Rain Heavy Rain
4:38 AM 39.2 °F 30.8 °F 37.4 °F 93% 30.01 in 2.5 mi ENE 15.0 mph - 0.21 in Rain Heavy Rain
4:48 AM 39.2 °F 31.6 °F 37.4 °F 93% 30.03 in 3.0 mi NE 12.7 mph - 0.28 in Rain , Thunderstorm Rain
4:53 AM 39.0 °F 32.8 °F 37.9 °F 96% 30.08 in 4.0 mi North 9.2 mph - 0.29 in Rain , Thunderstorm Rain
5:09 AM 39.2 °F 30.2 °F 37.4 °F 93% 30.09 in 4.0 mi North 17.3 mph - 0.07 in Rain Heavy Rain
5:18 AM 39.2 °F 33.0 °F 37.4 °F 93% 30.09 in 2.5 mi NNE 9.2 mph 25.3 mph 0.14 in Rain , Thunderstorm Heavy Thunderstorms and Rain
5:30 AM 37.4 °F 28.5 °F 37.4 °F 100% 30.13 in 2.0 mi North 15.0 mph 21.9 mph 0.27 in Rain , Thunderstorm Heavy Thunderstorms and Rain
5:43 AM 37.4 °F 30.3 °F 37.4 °F 100% 30.13 in 2.5 mi North 10.4 mph 20.7 mph 0.39 in Rain , Thunderstorm Heavy Rain
5:46 AM 37.4 °F 28.9 °F 37.4 °F 100% 30.12 in 3.0 mi NE 13.8 mph 20.7 mph 0.41 in Rain , Thunderstorm Heavy Rain
5:53 AM 37.9 °F 29.6 °F 37.0 °F 97% 30.10 in 4.0 mi ENE 13.8 mph 20.7 mph 0.47 in Rain , Thunderstorm Heavy Rain
6:01 AM 37.4 °F 28.9 °F 37.4 °F 100% 30.08 in 4.0 mi ENE 13.8 mph - 0.05 in Rain Heavy Rain
6:53 AM 39.0 °F 30.3 °F 37.0 °F 93% 30.02 in 5.0 mi East 16.1 mph - 0.30 in Rain Heavy Rain
7:32 AM 39.2 °F 30.5 °F 37.4 °F 93% 30.02 in 5.0 mi East 16.1 mph 23.0 mph 0.20 in Rain Rain
7:53 AM 39.0 °F 29.0 °F 37.0 °F 93% 30.00 in 4.0 mi East 20.7 mph 28.8 mph 0.31 in Rain Heavy Rain
8:53 AM 39.9 °F 33.4 °F 37.9 °F 93% 30.01 in 10.0 mi ENE 10.4 mph - 0.13 in Rain Light Rain
9:53 AM 39.9 °F 32.9 °F 37.9 °F 93% 29.99 in 10.0 mi ENE 11.5 mph - 0.01 in Rain Light Rain
10:53 AM 39.9 °F 31.1 °F 39.0 °F 97% 29.96 in 10.0 mi East 17.3 mph 21.9 mph 0.00 in   Overcast
11:11 AM 39.2 °F 31.6 °F 39.2 °F 100% 29.94 in 10.0 mi ENE 12.7 mph 20.7 mph N/A   Overcast
11:53 AM 39.9 °F 32.5 °F 39.0 °F 97% 29.93 in 2.0 mi ENE 12.7 mph - N/A   Overcast
12:49 PM 39.2 °F 32.5 °F 39.2 °F 100% 29.88 in 0.2 mi East 10.4 mph - N/A Fog Fog
12:53 PM 39.9 °F 33.4 °F 39.0 °F 97% 29.88 in 0.2 mi ENE 10.4 mph - N/A Fog Fog
1:00 PM 39.2 °F 32.0 °F 39.2 °F 100% 29.87 in 0.5 mi ENE 11.5 mph - 0.00 in Fog , Rain Light Rain
1:14 PM 39.2 °F 31.6 °F 39.2 °F 100% 29.86 in 1.5 mi East 12.7 mph - 0.00 in Rain Light Rain
1:29 PM 39.2 °F 33.6 °F 39.2 °F 100% 29.85 in 2.0 mi ENE 8.1 mph 17.3 mph 0.00 in Rain Light Rain
1:40 PM 39.2 °F 32.5 °F 39.2 °F 100% 29.85 in 3.0 mi ENE 10.4 mph - 0.00 in Rain Light Rain
1:48 PM 39.2 °F 33.6 °F 39.2 °F 100% 29.85 in 2.5 mi NE 8.1 mph - 0.01 in Rain Light Rain
1:53 PM 39.9 °F 34.5 °F 39.9 °F 100% 29.86 in 3.0 mi NE 8.1 mph - 0.01 in Rain Light Rain
2:31 PM 39.2 °F 33.0 °F 39.2 °F 100% 29.83 in 1.8 mi NE 9.2 mph - 0.00 in Rain Light Rain
2:53 PM 39.0 °F 32.8 °F 37.9 °F 96% 29.83 in 1.8 mi NE 9.2 mph - 0.01 in Rain Light Rain
3:09 PM 39.2 °F 33.6 °F 37.4 °F 93% 29.83 in 2.0 mi NE 8.1 mph - 0.01 in Rain Light Rain
3:31 PM 39.2 °F 33.0 °F 37.4 °F 93% 29.83 in 2.5 mi NE 9.2 mph - 0.01 in Rain Light Rain
3:53 PM 39.0 °F 31.8 °F 37.9 °F 96% 29.83 in 2.5 mi NE 11.5 mph - 0.01 in Rain Light Rain
4:04 PM 39.2 °F 32.0 °F 37.4 °F 93% 29.82 in 1.5 mi NNE 11.5 mph - 0.02 in Rain Rain
4:11 PM 39.2 °F 32.0 °F 37.4 °F 93% 29.82 in 3.0 mi NE 11.5 mph - 0.02 in Rain Light Rain
4:53 PM 37.9 °F 31.5 °F 37.0 °F 97% 29.82 in 4.0 mi NE 9.2 mph - 0.02 in   Overcast
5:53 PM 37.0 °F 29.3 °F 36.0 °F 96% 29.81 in 6.0 mi NNE 11.5 mph - 0.00 in   Overcast
6:53 PM 36.0 °F 28.5 °F 35.1 °F 97% 29.84 in 3.0 mi North 10.4 mph - 0.07 in Rain Rain
7:12 PM 35.6 °F 28.0 °F 35.6 °F 100% 29.83 in 5.0 mi NNE 10.4 mph - 0.02 in Rain Light Rain
7:53 PM 36.0 °F 29.6 °F 35.1 °F 97% 29.84 in 9.0 mi NE 8.1 mph 17.3 mph 0.02 in   Overcast
7:57 PM 35.6 °F 29.2 °F 35.6 °F 100% 29.83 in 6.0 mi NE 8.1 mph - 0.00 in Rain Light Rain
8:27 PM 35.6 °F 29.9 °F 35.6 °F 100% 29.85 in 6.0 mi North 6.9 mph - 0.00 in Rain Light Rain
8:53 PM 36.0 °F 29.6 °F 35.1 °F 97% 29.85 in 6.0 mi North 8.1 mph - 0.00 in   Overcast
9:53 PM 36.0 °F 29.0 °F 34.0 °F 93% 29.84 in 9.0 mi NNW 9.2 mph - 0.00 in   Overcast
10:53 PM 36.0 °F 29.0 °F 34.0 °F 93% 29.83 in 10.0 mi NNW 9.2 mph - N/A   Overcast
11:53 PM 35.1 °F 26.9 °F 33.1 °F 92% 29.84 in 10.0 mi NNW 11.5 mph - N/A   Overcast